Regional Weather Roundup
Issued by NWS

Home | Current Version | Previous Version | Graphics & Text | Print | Product List | Glossary On
Versions: 1 2 3 4 5 6 7 8 9 10 11 12 13 14 15 16 17 18 19 20 21 22 23 24 25 26 27 28 29 30 31 32 33 34 35 36 37 38 39 40 41 42 43 44 45 46 47 48 49 50
000
ASUS43 KFSD 170002
RWRSD

WEATHER ROUNDUP FOR SOUTH DAKOTA
NATIONAL WEATHER SERVICE SIOUX FALLS SD
700 PM CDT TUE SEP 16 2014

NOTE: "FAIR" INDICATES FEW OR NO CLOUDS BELOW 12,000 FEET WITH NO
SIGNIFICANT WEATHER AND/OR OBSTRUCTIONS TO VISIBILITY.


SDZ001>005-009-010-012>017-170100-
NORTHWEST AND NORTH CENTRAL SOUTH DAKOTA

CITY           SKY/WX    TMP DP  RH WIND       PRES   REMARKS
FAITH            N/A     73  52  47 SE7       29.92S
MOBRIDGE       PTCLDY    74  51  44 CALM      29.89S
$$

SDZ012>016-024>037-041>051-057-063-072>074-170100-
SOUTHWEST AND SOUTH CENTRAL SOUTH DAKOTA

CITY           SKY/WX    TMP DP  RH WIND       PRES   REMARKS
RAPID CTY ARPT SUNNY     76  49  38 SE5       29.95S
PIERRE         PTCLDY    73  54  51 S5        29.88F
CUSTER         SUNNY     76  32  20 W6        30.07F
ELLSWORTH AFB  SUNNY     78  47  34 S1        29.95S
PHILIP         PTCLDY    78  49  35 E3        29.90F
PINE RIDGE     CLEAR     78  52  40 E3        29.96S
WINNER         FAIR      77  56  48 N5        29.91F
$$

SDZ004>011-016>023-039-040-170100-
NORTHEAST SOUTH DAKOTA

CITY           SKY/WX    TMP DP  RH WIND       PRES   REMARKS
ABERDEEN       CLEAR     66  56  70 SE5       29.91F
WATERTOWN      CLEAR     64  51  62 S8        29.95F
SISSETON         N/A     66  50  56 S7        29.93S
$$

SDZ017-020-022-023-036>040-048>070-170100-
SOUTHEAST SOUTH DAKOTA

CITY           SKY/WX    TMP DP  RH WIND       PRES   REMARKS
SIOUX FALLS    MOCLDY    65  50  58 S13       29.98F
HURON          PTCLDY    71  55  56 S7        29.90F
CHAMBERLAIN    CLEAR     72  60  65 SE3       29.89F
MITCHELL       PTCLDY    70  56  61 S12       29.93F
YANKTON        CLOUDY    66  52  59 S8        29.97F
$$

ABBREVIATIONS USED IN REMARKS
   TC - TEMPERATURE IN CELSIUS
  WCI - WIND CHILL INDEX
   HX - HEAT INDEX
  VSB - VISIBILITY



USA.gov is the U.S. government's official web portal to all federal, state and local government web resources and services.